• en Suisse
  • Liste des pays
  • À 7 jours
  • Température de l'eau
  • Carte satellitaire
  • Carte météo
  • Widgets météo
  • user-avatar
    Se connecter

    Météo par heure à Cambridge

    Ce jour, 17 Juillet, Mardi

    Heure Température Précipitation Vent Pression Humidité
    00:00 +17°C° 0 mm 3 m/s 758 mmHg 91%
    01:00 +16°C° 0 mm 3 m/s 758 mmHg 92%
    02:00 +16°C° 0 mm 3 m/s 758 mmHg 93%
    03:00 +14°C° 0 mm 4 m/s 758 mmHg 94%
    04:00 +14°C° 0 mm 4 m/s 758 mmHg 92%
    05:00 +14°C° 0 mm 4 m/s 758 mmHg 89%
    06:00 +14°C° 0 mm 4 m/s 759 mmHg 87%
    07:00 +17°C° 0 mm 4 m/s 759 mmHg 77%
    08:00 +19°C° 0 mm 4 m/s 759 mmHg 68%
    09:00 +20°C° 0 mm 4 m/s 759 mmHg 58%
    10:00 +21°C° 0 mm 4 m/s 759 mmHg 53%
    11:00 +23°C° 0 mm 4 m/s 760 mmHg 48%
    12:00 +25°C° 0 mm 4 m/s 760 mmHg 43%
    13:00 +25°C° 0 mm 4 m/s 760 mmHg 45%
    14:00 +23°C° 0 mm 4 m/s 760 mmHg 46%
    15:00 +23°C° 0 mm 4 m/s 760 mmHg 48%
    16:00 +23°C° 0 mm 4 m/s 760 mmHg 48%
    17:00 +22°C° 0 mm 4 m/s 760 mmHg 49%
    18:00 +22°C° 0 mm 4 m/s 760 mmHg 49%
    19:00 +21°C° 0 mm 3 m/s 760 mmHg 55%
    20:00 +19°C° 0 mm 3 m/s 760 mmHg 61%
    21:00 +18°C° 0 mm 2 m/s 760 mmHg 66%
    22:00 +17°C° 0 mm 2 m/s 761 mmHg 70%
    23:00 +16°C° 0 mm 2 m/s 761 mmHg 75%

    Demain, 18 Juillet, Mercredi

    Heure Température Précipitation Vent Pression Humidité
    00:00 +15°C° 0 mm 2 m/s 761 mmHg 79%
    01:00 +15°C° 0 mm 2 m/s 761 mmHg 81%
    02:00 +14°C° 0 mm 2 m/s 761 mmHg 83%
    03:00 +14°C° 0 mm 1 m/s 761 mmHg 86%
    04:00 +14°C° 0 mm 1 m/s 761 mmHg 82%
    05:00 +15°C° 0 mm 1 m/s 761 mmHg 78%
    06:00 +16°C° 0 mm 1 m/s 762 mmHg 74%
    07:00 +19°C° 0 mm 1 m/s 762 mmHg 66%
    08:00 +20°C° 0 mm 2 m/s 762 mmHg 59%
    09:00 +23°C° 0 mm 2 m/s 762 mmHg 51%
    10:00 +23°C° 0 mm 2 m/s 762 mmHg 48%
    11:00 +24°C° 0 mm 2 m/s 762 mmHg 46%
    12:00 +25°C° 0 mm 2 m/s 762 mmHg 43%
    13:00 +25°C° 0 mm 2 m/s 762 mmHg 44%
    14:00 +25°C° 0 mm 2 m/s 762 mmHg 44%
    15:00 +25°C° 0 mm 2 m/s 762 mmHg 45%
    16:00 +25°C° 0 mm 1 m/s 762 mmHg 47%
    17:00 +24°C° 0 mm 1 m/s 762 mmHg 48%
    18:00 +24°C° 0 mm 1 m/s 762 mmHg 50%
    19:00 +23°C° 0 mm 1 m/s 763 mmHg 55%
    20:00 +21°C° 0 mm 1 m/s 763 mmHg 60%
    21:00 +19°C° 0 mm 2 m/s 763 mmHg 65%
    22:00 +18°C° 0 mm 2 m/s 763 mmHg 69%
    23:00 +17°C° 0 mm 2 m/s 763 mmHg 73%

    Après-demain, 19 Juillet, Jeudi

    Heure Température Précipitation Vent Pression Humidité
    00:00 +16°C° 0 mm 2 m/s 763 mmHg 77%
    01:00 +16°C° 0 mm 1 m/s 763 mmHg 79%
    02:00 +16°C° 0 mm 1 m/s 763 mmHg 82%
    03:00 +15°C° 0 mm 1 m/s 763 mmHg 84%
    04:00 +16°C° 0 mm 1 m/s 763 mmHg 80%
    05:00 +18°C° 0 mm 1 m/s 763 mmHg 76%
    06:00 +17°C° 0 mm 0 m/s 763 mmHg 72%
    07:00 +21°C° 0 mm 1 m/s 763 mmHg 66%
    08:00 +22°C° 0 mm 1 m/s 763 mmHg 59%
    09:00 +24°C° 0 mm 2 m/s 763 mmHg 53%
    10:00 +25°C° 0 mm 2 m/s 763 mmHg 50%
    11:00 +26°C° 0 mm 2 m/s 763 mmHg 47%
    12:00 +26°C° 0 mm 2 m/s 763 mmHg 44%
    13:00 +26°C° 0 mm 2 m/s 763 mmHg 43%
    14:00 +26°C° 0 mm 2 m/s 763 mmHg 43%
    15:00 +27°C° 0 mm 2 m/s 763 mmHg 43%
    16:00 +26°C° 0 mm 2 m/s 763 mmHg 44%
    17:00 +25°C° 0 mm 2 m/s 762 mmHg 46%
    18:00 +25°C° 0 mm 2 m/s 762 mmHg 48%
    19:00 +23°C° 0 mm 2 m/s 762 mmHg 53%
    20:00 +20°C° 0 mm 2 m/s 763 mmHg 59%
    21:00 +18°C° 0 mm 3 m/s 763 mmHg 65%
    22:00 +18°C° 0 mm 3 m/s 763 mmHg 68%
    23:00 +17°C° 0 mm 2 m/s 763 mmHg 71%

    20 Juillet, Vendredi

    Heure Température Précipitation Vent Pression Humidité
    00:00 +16°C° 0 mm 2 m/s 762 mmHg 75%
    01:00 +16°C° 0 mm 2 m/s 762 mmHg 77%
    02:00 +15°C° 0 mm 2 m/s 762 mmHg 79%
    03:00 +15°C° 0 mm 1 m/s 762 mmHg 81%
    04:00 +16°C° 0 mm 1 m/s 762 mmHg 77%
    05:00 +18°C° 0 mm 1 m/s 762 mmHg 72%
    06:00 +19°C° 0 mm 1 m/s 762 mmHg 68%
    07:00 +21°C° 0 mm 1 m/s 762 mmHg 60%
    08:00 +23°C° 0 mm 1 m/s 762 mmHg 53%
    09:00 +25°C° 0 mm 1 m/s 762 mmHg 45%
    10:00 +26°C° 0 mm 2 m/s 762 mmHg 42%
    11:00 +26°C° 0 mm 2 m/s 762 mmHg 40%
    12:00 +27°C° 0 mm 2 m/s 762 mmHg 38%
    13:00 +27°C° 0 mm 2 m/s 761 mmHg 39%
    14:00 +27°C° 0 mm 3 m/s 761 mmHg 40%
    15:00 +27°C° 0 mm 3 m/s 761 mmHg 42%
    16:00 +26°C° 0 mm 3 m/s 761 mmHg 43%
    17:00 +26°C° 0 mm 3 m/s 761 mmHg 44%
    18:00 +26°C° 0 mm 3 m/s 761 mmHg 46%
    19:00 +22°C° 0 mm 3 m/s 761 mmHg 52%
    20:00 +20°C° 0 mm 3 m/s 761 mmHg 58%
    21:00 +18°C° 0 mm 2 m/s 762 mmHg 65%
    22:00 +17°C° 0 mm 2 m/s 762 mmHg 68%
    23:00 +17°C° 0 mm 2 m/s 762 mmHg 71%

    21 Juillet, Samedi

    Heure Température Précipitation Vent Pression Humidité
    00:00 +16°C° 0 mm 1 m/s 762 mmHg 74%
    01:00 +16°C° 0 mm 1 m/s 762 mmHg 75%
    02:00 +16°C° 0 mm 1 m/s 762 mmHg 76%
    03:00 +15°C° 0 mm 1 m/s 762 mmHg 77%
    04:00 +16°C° 0 mm 1 m/s 762 mmHg 74%
    05:00 +18°C° 0 mm 1 m/s 762 mmHg 71%
    06:00 +19°C° 0 mm 1 m/s 762 mmHg 68%
    07:00 +21°C° 0 mm 1 m/s 762 mmHg 61%
    08:00 +21°C° 0 mm 2 m/s 762 mmHg 54%
    09:00 +24°C° 0 mm 2 m/s 762 mmHg 47%
    10:00 +25°C° 0 mm 2 m/s 762 mmHg 44%
    11:00 +26°C° 0 mm 3 m/s 762 mmHg 41%
    12:00 +27°C° 0 mm 3 m/s 762 mmHg 38%
    13:00 +28°C° 0 mm 3 m/s 762 mmHg 38%
    14:00 +28°C° 0 mm 4 m/s 762 mmHg 37%
    15:00 +28°C° 0 mm 4 m/s 762 mmHg 36%
    16:00 +27°C° 0 mm 3 m/s 762 mmHg 39%
    17:00 +27°C° 0 mm 3 m/s 762 mmHg 42%
    18:00 +26°C° 0 mm 3 m/s 762 mmHg 45%
    19:00 +25°C° 0 mm 3 m/s 762 mmHg 52%
    20:00 +23°C° 0 mm 2 m/s 762 mmHg 60%
    21:00 +20°C° 0 mm 2 m/s 762 mmHg 67%
    22:00 +20°C° 0 mm 2 m/s 762 mmHg 71%
    23:00 +19°C° 0 mm 2 m/s 762 mmHg 74%

    22 Juillet, Dimanche

    Heure Température Précipitation Vent Pression Humidité
    00:00 +19°C° 0 mm 2 m/s 762 mmHg 78%
    01:00 +18°C° 0 mm 2 m/s 762 mmHg 79%
    02:00 +18°C° 0 mm 2 m/s 762 mmHg 80%
    03:00 +18°C° 0 mm 2 m/s 762 mmHg 81%
    04:00 +18°C° 0 mm 2 m/s 762 mmHg 79%
    05:00 +18°C° 0 mm 2 m/s 762 mmHg 78%
    06:00 +18°C° 0 mm 3 m/s 762 mmHg 76%
    07:00 +20°C° 0 mm 3 m/s 762 mmHg 70%
    08:00 +21°C° 0 mm 3 m/s 762 mmHg 63%
    09:00 +24°C° 0 mm 3 m/s 762 mmHg 57%
    10:00 +25°C° 0 mm 3 m/s 762 mmHg 54%
    11:00 +26°C° 0 mm 3 m/s 762 mmHg 51%
    12:00 +27°C° 0 mm 3 m/s 762 mmHg 49%
    13:00 +27°C° 0 mm 3 m/s 761 mmHg 48%
    14:00 +28°C° 0 mm 3 m/s 761 mmHg 47%
    15:00 +28°C° 0 mm 3 m/s 761 mmHg 46%
    16:00 +28°C° 0 mm 3 m/s 761 mmHg 48%
    17:00 +28°C° 0 mm 2 m/s 761 mmHg 49%
    18:00 +28°C° 0 mm 2 m/s 761 mmHg 51%
    19:00 +26°C° 0 mm 2 m/s 761 mmHg 56%
    20:00 +25°C° 0 mm 1 m/s 761 mmHg 60%
    21:00 +23°C° 0 mm 1 m/s 761 mmHg 65%
    22:00 +23°C° 0 mm 1 m/s 761 mmHg 69%
    23:00 +21°C° 0 mm 2 m/s 761 mmHg 73%
    Voir plus